Content
SEND FEEDBACK

Daily
Averages
Monthly
Summary
United States of America

TUCSON, ARIZONA


Home > North America > United States > Arizona
Elevation: 2584 feet     Latitude: 32 08N     Longitude: 110 56W

WEATHER
 
SELECT A DAY
Number of Records: 106,816;   Date Range: 1/1/02 - 8/12/14
 
SHARE

PRINT THIS DATA

[ ← Previous Day ]
WEATHER ALMANAC - MAY 7, 2013
[ Next Day → ]
[ °C ]   °F
Weather ElementAverageHighLow
Temperature72.6 °F82.9 °F (1:53 pm)62.1 °F (4:53 am)
Dewpoint32.9 °F44.1 °F (8:53 pm)21 °F (2:53 pm)
Humidity26.3 %45 % (10:53 pm)10 % (2:53 pm)
Barometer29.89 in29.96 in (2:05 pm)29.80 in (3:53 pm)
Wind Speed9.9 mph18.4 mph (6:53 pm)
Wind Gust27.6 mph (5:53 pm)
Weather ElementAverage
Visibility10 mi
Wind DirectionSSW (192.1 °)

Weather ElementTotal
Precipitation---
Cooling Degree Days7.5 (Base 65)
Growing Degree Days22.5 (Base 50)
Averaged from 24 records on May 7, 2013
WEATHER CONDITIONS BREAKOUT
WIND DIRECTION BREAKOUT
WEATHER BY HOUR - MAY 7, 2013
[ °C ]   °F
Local TimeTemperatureDewpointHumidityBarometerVisibilityWind DirectionWind SpeedGust SpeedPrecipitationEventsConditions
1:53 AM66.9 °F35.1 °F31 %29.91 in10.0 miSouth (190°)6.9 mphClear
2:53 AM64.9 °F36.0 °F34 %29.90 in10.0 miSSE (160°)6.9 mphClear
3:53 AM64.0 °F34.0 °F33 %29.90 in10.0 miSSE (160°)5.8 mphClear
4:53 AM62.1 °F36.0 °F38 %29.91 in10.0 miSSE (160°)3.5 mphClear
5:53 AM64.0 °F37.9 °F38 %29.92 in10.0 miCalmPartly Cloudy
6:53 AM64.9 °F37.0 °F36 %29.94 in10.0 miSSE (150°)5.8 mphMostly Cloudy
7:53 AM69.1 °F37.0 °F31 %29.94 in10.0 miSSE (150°)8.1 mphClear
8:53 AM72.0 °F39.9 °F31 %29.94 in10.0 miVariable4.6 mph23.0 mphClear
9:53 AM73.0 °F39.9 °F30 %29.94 in10.0 miSSW (200°)9.2 mph18.4 mphClear
10:53 AM73.9 °F39.0 °F28 %29.92 in10.0 miSW (220°)8.1 mphClear
11:53 AM78.1 °F32.0 °F19 %29.89 in10.0 miWSW (240°)12.7 mph19.6 mphClear
12:53 PM82.0 °F30.9 °F16 %29.87 in10.0 miWSW (240°)13.8 mph21.9 mphClear
1:53 PM82.9 °F28.0 °F14 %29.84 in10.0 miWSW (240°)17.3 mphClear
2:05 PM82.9 °F28.0 °F14 %29.96 in10.0 miSSW (210°)17.3 mph25.3 mphClear
2:53 PM82.9 °F21.0 °F10 %29.82 in10.0 miSW (220°)16.1 mph25.3 mphClear
3:53 PM82.9 °F21.9 °F11 %29.80 in10.0 miWSW (240°)12.7 mph20.7 mphClear
4:53 PM82.0 °F21.0 °F10 %29.81 in10.0 miWSW (240°)17.3 mph26.5 mphClear
5:53 PM81.0 °F21.0 °F11 %29.81 in10.0 miSW (230°)16.1 mph27.6 mphClear
6:53 PM77.0 °F21.9 °F13 %29.82 in10.0 miSW (230°)18.4 mphClear
7:53 PM73.0 °F23.0 °F15 %29.84 in10.0 miWest (260°)8.1 mphClear
8:53 PM69.1 °F44.1 °F40 %29.86 in10.0 miWest (280°)12.7 mph21.9 mphClear
9:53 PM66.9 °F44.1 °F44 %29.91 in10.0 miWNW (290°)9.2 mphClear
10:53 PM64.0 °F42.1 °F45 %29.92 in10.0 miWNW (300°)5.8 mphClear
11:53 PM64.0 °F39.0 °F40 %29.93 in10.0 miCalmClear
Hourly data recorded from KTUS, located miles away from Tucson, Arizona







STORIES FROM OUR PARTNERS